Regional Weather Roundup
Issued by NWS

Home | Current Version | Previous Version | Graphics & Text | Print | Product List | Glossary On
Versions: 1 2 3 4 5 6 7 8 9 10 11 12 13 14 15 16 17 18 19 20 21 22 23 24 25 26 27 28 29 30 31 32 33 34 35 36 37 38 39 40 41 42 43 44 45 46 47 48 49 50
491
ASUS43 KDMX 281803
RWRIA

WEATHER ROUNDUP FOR IOWA
NATIONAL WEATHER SERVICE DES MOINES IA
100 PM CDT WED SEP 28 2016

NOTE: "FAIR" INDICATES FEW OR NO CLOUDS BELOW 12,000 FEET WITH NO
SIGNIFICANT WEATHER AND/OR OBSTRUCTIONS TO VISIBILITY.

* - THESE STATIONS ARE NOT NWS STATIONS...THUS NOT UNDER NWS
QUALITY CONTROL.  THEY ALSO DO NOT REPORT WEATHER SUCH
AS PRECIPITATION OR FOG.

IAZ001>003-012>014-020>022-031>034-043>046-281900-
   NORTHWEST IOWA

CITY           SKY/WX    TMP DP  RH WIND       PRES   REMARKS
CARROLL *      PTSUNNY   61  46  59 N16       30.17S
CHEROKEE *     CLOUDY    55  49  78 NW6       30.22S
DENISON *      CLOUDY    55  46  71 N13G18    30.19R
LE MARS *      CLOUDY    55  46  71 N10       30.25R
ORANGE CITY *  CLOUDY    54  46  76 N7        30.24R
SHELDON *      CLOUDY    54  46  76 N8        30.23R
SIOUX CITY     MOSUNNY   60  47  61 NE13      30.23S
6HR MIN TEMP:  44; 6HR MAX TEMP:  60;

SPENCER        CLOUDY    57  47  69 N14       30.21R
6HR MIN TEMP:  47; 6HR MAX TEMP:  57;

STORM LAKE *   MOSUNNY   59  46  63 N9G16     30.20S
$$

IAZ055>058-069>071-079>083-090>094-281900-
   SOUTHWEST IOWA

CITY           SKY/WX    TMP DP  RH WIND       PRES   REMARKS
ATLANTIC *     CLOUDY    57  46  67 N13G21    30.18S
AUDUBON *      PTSUNNY   57  48  72 N12G20    30.18S
CLARINDA *       N/A     61  46  59 MISG      30.18R HAZE
COUNCIL BLFS * SUNNY     59  46  63 MISG      30.19S
CRESTON *      PTSUNNY   57  46  67 N16G22    30.15S
HARLAN  *      CLOUDY    57  46  67 N10G21    30.22S
LAMONI         MOSUNNY   61  48  62 N15       30.12R
6HR MIN TEMP:  48; 6HR MAX TEMP:  61;

RED OAK *      MOSUNNY   59  46  63 N12G26    30.18R
SHENANDOAH *   MOSUNNY   61  46  59 N9G20     30.18R
$$

IAZ047>049-059>061-072>074-084-281900-
   CENTRAL IOWA

CITY           SKY/WX    TMP DP  RH WIND       PRES   REMARKS
AMES           CLOUDY    58  49  72 N18G26    30.13R
6HR MIN TEMP:  51; 6HR MAX TEMP:  59;

ANKENY *         N/A    N/A N/A N/A MISG        N/A
BOONE *        CLOUDY    55  48  76 NW13G18   30.14R
CHARITON *       N/A     59  48  67 NW15G22   30.11R
DES MOINES     CLOUDY    58  47  66 NW15      30.13R
6HR MIN TEMP:  52; 6HR MAX TEMP:  60;

GRINNELL*      CLOUDY    59  47  63 N12G17    30.09S
KNOXVILLE *    CLOUDY    59  46  63 NW12      30.09R
MARSHALLTOWN   CLOUDY    60  48  64 N15       30.10R
6HR MIN TEMP:  50; 6HR MAX TEMP:  60;

NEWTON *       CLOUDY    59  46  63 N18G24    30.09R
PELLA *        CLOUDY    61  47  61 N9G18     30.10R
PERRY *        CLOUDY    61  48  62 N18G24    30.16R
$$

IAZ004>006-015-016-023>025-035-036-281900-
   NORTH CENTRAL IOWA

CITY           SKY/WX    TMP DP  RH WIND       PRES   REMARKS
ALGONA *       CLOUDY    57  48  72 N15       30.18R
CLARION *      CLOUDY    57  48  72 N13G21    30.15R
ESTHERVILLE    CLOUDY    57  48  72 N14       30.20R
6HR MIN TEMP:  46; 6HR MAX TEMP:  59;

FORT DODGE *   CLOUDY    57  46  67 N7        30.18R
MASON CITY     CLOUDY    59  48  67 N20       30.15R
6HR MIN TEMP:  49; 6HR MAX TEMP:  60;

FOREST CITY *  CLOUDY    59  46  63 N9G28     30.16R
WEBSTER CITY * CLOUDY    57  48  72 N17       30.13R
IOWA FALLS *   CLOUDY    60  48  65 N13G18    30.12R
$$

IAZ007>011-017>019-026>030-037>042-050>054-066-281900-
   NORTHEAST IOWA

CITY           SKY/WX    TMP DP  RH WIND       PRES   REMARKS
CEDAR RAPIDS   CLOUDY    60  51  72 N16       30.05R
6HR MIN TEMP:  50; 6HR MAX TEMP:  60; 6HR PCP: TRACE;

CHARLES CITY * CLOUDY    59  48  67 N12G17    30.11R
CLINTON *      CLOUDY    60  49  66 N15       30.01R
DECORAH *      CLOUDY    59  50  72 N16       30.07R
DUBUQUE        CLOUDY    57  49  74 N15       30.03R
6HR MIN TEMP:  48; 6HR MAX TEMP:  61;

MONTICELLO *   PTSUNNY   61  48  63 N15       30.04R
OELWEIN *      CLOUDY    59  48  67 N15G23    30.08R
WATERLOO       CLOUDY    60  48  64 N16       30.08R
6HR MIN TEMP:  51; 6HR MAX TEMP:  60;

$$

IAZ064-065-067-068-078-281900-
   EAST CENTRAL IOWA

CITY           SKY/WX    TMP DP  RH WIND       PRES   REMARKS
DAVENPORT      CLOUDY    60  48  64 N9        30.02R
6HR MIN TEMP:  50; 6HR MAX TEMP:  60;

IOWA CITY      LGT RAIN  58  50  75 N8        30.07R
6HR MIN TEMP:  52; 6HR MAX TEMP:  58; 6HR PCP: TRACE;

MT. PLEASANT * CLOUDY    62  49  61 N15       30.05R
MUSCATINE *    CLOUDY    61  46  59 N15G22    30.04R
QUAD CITIES    CLOUDY    60  49  66 N10       30.01R
6HR MIN TEMP:  51; 6HR MAX TEMP:  60;

$$

IAZ062-063-075>077-085>089-095>099-281900-
   SOUTHEAST IOWA

CITY           SKY/WX    TMP DP  RH WIND       PRES   REMARKS
BURLINGTON     CLOUDY    58  48  69 N12       30.03R
6HR MIN TEMP:  49; 6HR MAX TEMP:  58;

FAIRFIELD *    CLOUDY    59  46  63 N15G22    30.06R
FORT MADISON * CLOUDY    59  48  67 N9G20     30.05R
KEOKUK *       CLOUDY    59  46  63 N9G18     30.04R
OSKALOOSA *    CLOUDY    59  47  63 N13G18    30.09R
OTTUMWA        CLOUDY    60  46  59 N15       30.08R
WASHINGTON *     N/A    N/A N/A N/A MISG        N/A
$$

ABBREVIATIONS USED IN REMARKS
   TC - TEMPERATURES IN CELSIUS
  WCI - WIND CHILL INDEX
   HX - HEAT INDEX
  VSB - VISIBILITY
$$





USA.gov is the U.S. government's official web portal to all federal, state and local government web resources and services.